Total_Precipitation_Accumulation
1.20 1.15 1.76 2.53 2.64 1.82 1.42 1.08 0.76 0.76 0.66 0.52 0.38 0.33 0.42 0.71 0.97 1.24 1.11 1.03 0.67 0.58 0.64 0.91 1.22 1.22 1.06 0.90 0.84 0.85 0.72 0.56 0.52 0.54 0.51 0.44 0.42 0.41 0.41 0.41 0.38 0.37 0.35 0.35 0.41 0.46 0.39 0.40 0.49
0.85 1.40 2.25 2.95 2.33 1.54 1.42 1.08 0.88 0.76 0.59 0.45 0.36 0.33 0.33 0.29 0.24 0.53 1.08 1.21 0.72 0.53 0.60 0.78 1.15 1.19 1.06 0.95 0.88 0.93 0.82 0.66 0.60 0.58 0.52 0.46 0.41 0.44 0.52 0.53 0.44 0.40 0.38 0.36 0.40 0.50 0.42 0.40 0.47
1.17 2.02 2.80 2.73 1.77 1.42 1.38 1.12 0.88 0.61 0.44 0.37 0.37 0.31 0.29 0.35 0.40 0.75 1.10 0.91 0.66 0.57 0.65 0.98 1.19 1.06 0.98 0.96 1.02 1.13 1.01 0.89 0.77 0.65 0.56 0.52 0.49 0.49 0.57 0.53 0.51 0.49 0.46 0.45 0.51 0.56 0.49 0.43 0.41
1.59 2.46 2.78 2.28 1.63 1.27 1.10 1.04 0.84 0.61 0.40 0.25 0.27 0.31 0.29 0.36 0.51 0.75 0.82 0.65 0.54 0.59 0.69 0.92 1.04 0.99 0.96 0.98 1.04 1.09 1.10 1.10 0.92 0.76 0.69 0.67 0.64 0.62 0.65 0.65 0.59 0.59 0.57 0.58 0.58 0.56 0.54 0.50 0.48
2.03 2.53 2.45 2.14 1.71 1.33 1.02 0.88 0.80 0.61 0.42 0.26 0.24 0.39 0.45 0.59 0.67 0.70 0.72 0.59 0.50 0.53 0.62 0.74 0.93 0.87 0.87 0.93 1.03 1.02 1.07 1.15 1.01 0.79 0.77 0.80 0.72 0.72 0.74 0.76 0.67 0.65 0.62 0.63 0.65 0.59 0.57 0.55 0.54
2.34 2.35 2.27 2.12 1.84 1.48 1.18 0.78 0.66 0.57 0.37 0.28 0.28 0.42 0.61 0.74 0.80 0.86 0.79 0.82 0.72 0.64 0.60 0.66 0.80 0.86 0.86 0.95 1.06 0.98 0.99 1.08 1.02 0.91 0.84 0.78 0.77 0.81 0.82 0.78 0.73 0.68 0.67 0.68 0.69 0.68 0.62 0.58 0.57
2.20 2.09 1.99 1.59 1.60 1.75 1.29 0.71 0.68 0.63 0.53 0.44 0.28 0.43 0.63 0.67 0.64 0.74 0.74 0.81 0.95 1.01 0.90 0.73 0.68 0.72 0.79 0.94 1.06 1.05 1.01 1.01 0.97 1.01 0.95 0.92 0.89 0.84 0.78 0.76 0.76 0.74 0.74 0.74 0.72 0.68 0.65 0.62 0.61
1.81 1.73 1.59 1.50 1.56 1.64 1.10 0.60 0.48 0.53 0.50 0.34 0.32 0.46 0.61 0.50 0.47 0.57 0.75 0.94 1.00 1.05 1.01 0.88 0.78 0.77 0.79 0.75 0.91 1.10 1.16 1.11 1.01 0.99 0.98 0.98 0.91 0.82 0.77 0.71 0.72 0.77 0.78 0.83 0.83 0.75 0.73 0.69 0.65
1.55 1.66 1.72 1.81 1.70 1.37 0.82 0.60 0.45 0.36 0.34 0.30 0.27 0.31 0.38 0.33 0.42 0.56 0.66 0.75 0.87 0.87 0.88 0.87 0.89 0.91 0.97 0.97 0.95 1.17 1.25 1.18 0.99 0.89 0.92 0.93 0.78 0.81 0.82 0.71 0.83 0.83 0.88 0.92 0.92 0.87 0.85 0.75 0.65
1.53 1.61 1.60 1.32 1.05 0.86 0.70 0.58 0.51 0.50 0.49 0.37 0.32 0.32 0.30 0.32 0.41 0.50 0.56 0.61 0.67 0.71 0.69 0.68 0.71 0.79 0.90 0.99 1.32 1.53 1.33 1.21 0.94 0.94 0.83 0.88 0.95 1.02 0.85 0.79 0.95 0.98 1.02 0.99 0.98 1.01 0.94 0.76 0.58
1.24 1.39 1.12 0.95 0.79 0.58 0.57 0.57 0.45 0.49 0.50 0.34 0.35 0.37 0.36 0.40 0.43 0.48 0.49 0.49 0.53 0.54 0.51 0.50 0.48 0.50 0.59 0.79 1.14 1.43 1.55 1.52 1.43 1.19 0.96 0.95 0.83 0.72 0.67 0.69 0.80 0.87 0.95 0.90 0.93 0.94 0.79 0.70 0.64
1.19 1.03 0.81 0.80 0.60 0.57 0.54 0.48 0.44 0.38 0.33 0.24 0.33 0.36 0.37 0.40 0.39 0.40 0.44 0.46 0.49 0.51 0.50 0.46 0.45 0.42 0.44 0.53 0.70 0.90 1.04 1.14 1.16 1.01 0.90 0.97 0.85 0.74 0.75 0.75 0.75 0.75 0.83 0.92 0.95 0.90 0.77 0.65 0.58
1.18 1.06 0.76 0.62 0.55 0.51 0.44 0.42 0.39 0.36 0.32 0.25 0.32 0.41 0.46 0.47 0.43 0.42 0.44 0.47 0.49 0.55 0.61 0.58 0.49 0.45 0.44 0.47 0.55 0.63 0.78 0.87 0.90 0.92 0.88 0.91 0.91 0.87 0.84 0.77 0.77 0.71 0.77 0.87 0.94 0.89 0.80 0.73 0.67
0.95 0.97 0.96 0.82 0.65 0.52 0.47 0.40 0.35 0.35 0.32 0.34 0.41 0.47 0.50 0.57 0.53 0.52 0.52 0.52 0.51 0.55 0.62 0.67 0.59 0.55 0.50 0.47 0.51 0.55 0.65 0.73 0.77 0.76 0.76 0.86 0.94 0.94 0.90 0.85 0.86 0.83 0.84 0.96 0.94 0.85 0.88 0.86 0.75
0.87 1.03 0.98 0.84 0.73 0.62 0.57 0.57 0.40 0.34 0.37 0.42 0.50 0.47 0.48 0.55 0.57 0.57 0.55 0.52 0.52 0.56 0.59 0.61 0.63 0.63 0.62 0.60 0.58 0.57 0.64 0.74 0.76 0.73 0.68 0.70 0.78 0.83 0.86 0.87 0.87 0.91 0.99 1.04 1.06 0.90 0.89 0.83 0.74
1.02 1.22 1.28 0.89 0.79 0.71 0.74 0.73 0.43 0.38 0.40 0.38 0.39 0.39 0.42 0.46 0.49 0.51 0.52 0.48 0.48 0.48 0.49 0.53 0.55 0.61 0.68 0.71 0.72 0.73 0.73 0.80 0.77 0.76 0.69 0.64 0.69 0.77 0.90 0.90 0.88 0.91 1.03 1.11 1.14 1.04 0.97 0.89 0.84
1.04 1.03 1.00 0.85 0.70 0.66 0.62 0.56 0.41 0.40 0.40 0.34 0.34 0.31 0.30 0.33 0.36 0.38 0.40 0.42 0.44 0.43 0.43 0.45 0.50 0.52 0.64 0.73 0.76 0.84 0.86 0.87 0.85 0.84 0.74 0.71 0.76 0.83 1.00 1.10 1.11 1.11 1.12 1.10 1.06 1.10 1.06 1.00 0.98
0.80 0.68 0.64 0.63 0.56 0.51 0.46 0.39 0.33 0.32 0.31 0.27 0.25 0.24 0.24 0.26 0.26 0.29 0.30 0.31 0.32 0.34 0.36 0.40 0.45 0.48 0.55 0.70 0.82 0.97 1.09 1.05 1.07 1.01 0.89 0.91 1.05 1.18 1.32 1.32 1.39 1.46 1.33 1.27 1.21 1.22 1.16 1.07 1.09
0.54 0.52 0.52 0.51 0.42 0.38 0.36 0.31 0.31 0.29 0.28 0.25 0.22 0.20 0.19 0.20 0.17 0.18 0.22 0.24 0.24 0.23 0.26 0.32 0.36 0.44 0.53 0.61 0.75 0.96 1.24 1.35 1.44 1.40 1.22 1.16 1.28 1.52 1.72 1.69 1.73 1.75 1.61 1.56 1.62 1.80 1.74 1.47 1.24
0.54 0.58 0.54 0.51 0.36 0.31 0.31 0.26 0.25 0.25 0.27 0.25 0.20 0.18 0.15 0.14 0.11 0.10 0.12 0.15 0.16 0.16 0.18 0.24 0.32 0.42 0.51 0.60 0.77 0.94 1.08 1.08 1.26 1.41 1.39 1.30 1.29 1.44 1.57 1.82 1.91 1.83 1.84 1.95 1.98 2.28 2.41 1.98 1.57
0.53 0.50 0.51 0.51 0.36 0.27 0.26 0.27 0.20 0.19 0.21 0.20 0.19 0.16 0.15 0.14 0.11 0.09 0.10 0.10 0.11 0.12 0.13 0.17 0.24 0.35 0.48 0.64 0.87 1.09 1.27 1.36 1.42 1.35 1.43 1.44 1.37 1.41 1.51 1.66 1.82 1.82 1.89 1.97 2.08 2.40 2.83 2.58 2.07
0.46 0.32 0.29 0.33 0.39 0.36 0.32 0.36 0.22 0.22 0.27 0.26 0.24 0.20 0.17 0.16 0.12 0.10 0.09 0.10 0.10 0.11 0.10 0.14 0.23 0.38 0.59 0.80 1.06 1.31 1.51 1.55 1.44 1.48 1.51 1.39 1.34 1.30 1.37 1.51 1.64 1.76 1.78 1.91 2.01 2.12 2.57 2.87 2.56
0.32 0.25 0.20 0.24 0.30 0.26 0.22 0.30 0.25 0.27 0.37 0.37 0.32 0.28 0.22 0.18 0.16 0.15 0.13 0.16 0.17 0.17 0.18 0.25 0.45 0.70 0.96 1.17 1.43 1.72 1.72 1.61 1.51 1.51 1.48 1.42 1.43 1.40 1.39 1.53 1.60 1.61 1.66 1.76 2.09 2.35 2.60 2.77 2.70
0.24 0.23 0.23 0.24 0.26 0.23 0.16 0.24 0.32 0.32 0.36 0.39 0.38 0.32 0.24 0.20 0.23 0.28 0.33 0.39 0.44 0.47 0.61 0.81 1.08 1.27 1.36 1.49 1.64 1.76 1.73 1.74 1.68 1.50 1.40 1.39 1.44 1.49 1.53 1.59 1.59 1.56 1.59 1.69 1.91 2.19 2.40 2.71 2.87
0.19 0.23 0.32 0.35 0.34 0.25 0.17 0.32 0.41 0.36 0.30 0.30 0.31 0.26 0.21 0.25 0.34 0.46 0.61 0.74 0.85 0.97 1.11 1.24 1.43 1.59 1.54 1.51 1.56 1.59 1.60 1.59 1.57 1.51 1.41 1.35 1.36 1.37 1.41 1.52 1.64 1.72 1.74 1.85 2.02 2.16 2.07 2.30 2.67
0.16 0.22 0.39 0.46 0.36 0.30 0.30 0.50 0.54 0.43 0.32 0.23 0.18 0.17 0.25 0.38 0.52 0.63 0.72 0.83 1.00 1.14 1.20 1.21 1.32 1.43 1.40 1.38 1.35 1.32 1.37 1.40 1.35 1.27 1.26 1.29 1.36 1.33 1.27 1.32 1.43 1.57 1.73 1.78 1.83 1.84 1.81 1.94 2.18
0.13 0.16 0.21 0.34 0.28 0.27 0.39 0.64 0.58 0.38 0.32 0.26 0.22 0.26 0.40 0.58 0.80 0.94 1.05 1.17 1.22 1.25 1.31 1.23 1.23 1.28 1.29 1.23 1.15 1.13 1.18 1.24 1.25 1.19 1.20 1.18 1.18 1.10 1.02 1.02 1.07 1.15 1.23 1.31 1.46 1.55 1.66 1.71 1.83
0.14 0.21 0.28 0.47 0.51 0.49 0.56 0.67 0.59 0.47 0.43 0.45 0.52 0.62 0.68 0.78 1.04 1.33 1.58 1.75 1.57 1.31 1.20 1.15 1.08 1.09 1.18 1.16 1.09 1.05 1.13 1.13 1.12 1.15 1.12 1.11 1.10 1.01 0.94 0.90 0.86 0.83 0.81 0.85 1.03 1.22 1.34 1.45 1.61
0.18 0.29 0.37 0.49 0.59 0.73 0.90 1.00 0.84 0.86 0.88 0.96 1.06 1.11 1.11 1.21 1.19 1.35 1.54 1.71 1.61 1.30 1.07 1.08 1.09 1.05 1.03 1.03 1.05 1.05 1.03 0.93 0.91 0.96 0.97 0.96 0.96 1.00 0.98 0.89 0.82 0.89 0.89 0.85 0.91 0.96 1.02 1.10 1.25
0.29 0.41 0.54 0.72 0.65 0.71 0.91 1.08 0.95 0.94 0.96 1.05 1.23 1.31 1.30 1.20 1.10 1.09 1.14 1.21 1.23 1.08 0.90 0.86 1.00 1.05 1.00 0.97 0.99 0.99 0.90 0.84 0.81 0.79 0.76 0.67 0.64 0.67 0.76 0.84 0.79 0.78 0.80 0.82 0.88 0.90 0.94 0.97 1.05